Weather History for Burlington, WA

Change the Weather History Date:

Sunday, October 6, 2013

  Actual Average Record
Temperature  
Mean Temperature 58 °F -  
Max Temperature 75 °F 62 °F 75 °F (1978)
Min Temperature 42 °F 43 °F 34 °F (1970)
Degree Days  
Heating Degree Days 6    
Growing Degree Days 8 (Base 50)    
Moisture  
Dew Point 47 °F    
Average Humidity 72    
Maximum Humidity 100    
Minimum Humidity 31    
Precipitation  
Precipitation 0.00 in - - ()
Sea Level Pressure  
Sea Level Pressure 29.97 in    
Wind  
Wind Speed 4 mph (SE)    
Max Wind Speed 18 mph    
Max Gust Speed 28 mph    
Visibility 6 miles    
Events      
Averages and records for this station are not official NWS values.
T = Trace of Precipitation, MM = Missing Value Source: NWS Daily Summary

Daily Weather History Graph

Daily Weather History Graph

Search for Another Location

Airport:

Trip Planner

Search our weather history database for the weather conditions in past years. The results will help you decide how hot, cold, wet, or windy it might be!

Date:

Astronomy

Oct. 06, 2013 Rise Set
Actual Time 7:16 AM PDT 6:37 PM PDT
Civil Twilight 6:45 AM PDT 7:08 PM PDT
Nautical Twilight 6:09 AM PDT 7:45 PM PDT
Astronomical Twilight 5:32 AM PDT 8:21 PM PDT
Moon 9:18 AM PDT (10/6) 7:28 PM PDT (10/6)
Length of Visible Light 12h 23m
Length of Day
11h 20m
Waxing Crescent, 4% of the Moon is Illuminated
Oct 6
Waxing Crescent
Oct 11
First Quarter
Oct 18
Full
Oct 26
Last Quarter
Nov 3
New

Hourly Weather History & Observations

Time (PDT) Temp. Windchill Dew Point Humidity Pressure Visibility Wind Dir Wind Speed Gust Speed Precip Events Conditions
12:15 AM 51.8 °F - 51.8 °F 100% 30.15 in 9.0 mi ESE 3.5 mph - 0.00 in   Clear
12:35 AM 48.2 °F - 48.2 °F 100% 30.15 in 10.0 mi Calm Calm - 0.00 in   Clear
12:55 AM 48.2 °F - 48.2 °F 100% 30.14 in 9.0 mi Calm Calm - 0.00 in   Clear
1:15 AM 48.2 °F - 48.2 °F 100% 30.14 in 10.0 mi NNE 4.6 mph - 0.00 in   Clear
1:35 AM 48.2 °F - 48.2 °F 100% 30.14 in 10.0 mi Calm Calm - 0.00 in   Clear
1:55 AM 46.4 °F - 46.4 °F 100% 30.13 in 10.0 mi Calm Calm - 0.00 in   Clear
2:15 AM 48.2 °F - 48.2 °F 100% 30.13 in 3.0 mi Calm Calm - 0.00 in   Clear
2:35 AM 51.8 °F - 51.8 °F 100% 30.12 in 9.0 mi Calm Calm - 0.00 in   Clear
2:55 AM 46.4 °F - 46.4 °F 100% 30.12 in 1.8 mi Calm Calm - 0.00 in   Clear
3:15 AM 46.4 °F - 46.4 °F 100% 30.11 in 0.5 mi Calm Calm - 0.00 in   Unknown
3:35 AM 46.4 °F - 46.4 °F 100% 30.11 in 0.5 mi Calm Calm - 0.00 in   Unknown
3:55 AM 46.4 °F 45.2 °F 46.4 °F 100% 30.10 in 0.2 mi East 3.5 mph - 0.00 in   Unknown
4:15 AM 46.4 °F - 46.4 °F 100% 30.09 in 0.2 mi Calm Calm - 0.00 in   Unknown
4:35 AM 46.4 °F - 46.4 °F 100% 30.08 in 0.5 mi Calm Calm - 0.00 in   Unknown
4:55 AM 48.2 °F - 48.2 °F 100% 30.08 in 7.0 mi Calm Calm - 0.00 in   Clear
5:15 AM 46.4 °F - 46.4 °F 100% 30.07 in 0.8 mi Calm Calm - 0.00 in   Unknown
5:35 AM 44.6 °F - 44.6 °F 100% 30.06 in 0.2 mi Calm Calm - 0.00 in   Unknown
5:55 AM 44.6 °F - 44.6 °F 100% 30.06 in 0.2 mi Calm Calm - 0.00 in   Unknown
6:15 AM 44.6 °F - 44.6 °F 100% 30.06 in 0.2 mi Calm Calm - 0.00 in   Overcast
6:35 AM 42.8 °F - 42.8 °F 100% 30.05 in 0.2 mi Calm Calm - 0.00 in   Mostly Cloudy
6:55 AM 42.8 °F - 42.8 °F 100% 30.05 in 0.2 mi Calm Calm - 0.00 in   Overcast
7:15 AM 42.8 °F 41.1 °F 42.8 °F 100% 30.04 in 0.2 mi NW 3.5 mph - 0.00 in   Overcast
7:35 AM 44.6 °F - 44.6 °F 100% 30.04 in 0.5 mi Calm Calm - 0.00 in   Mostly Cloudy
7:55 AM 42.8 °F - 42.8 °F 100% 30.04 in 0.2 mi Calm Calm - 0.00 in   Unknown
8:15 AM 46.4 °F - 46.4 °F 100% 30.03 in 1.8 mi Calm Calm - 0.00 in   Clear
8:35 AM 48.2 °F - 48.2 °F 100% 30.03 in 10.0 mi Calm Calm - 0.00 in   Clear
8:55 AM 51.8 °F - 51.8 °F 100% 30.02 in 7.0 mi ENE 3.5 mph - 0.00 in   Clear
9:15 AM 51.8 °F - 51.8 °F 100% 30.02 in 7.0 mi Calm Calm - 0.00 in   Clear
9:35 AM 53.6 °F - 53.6 °F 100% 30.01 in 7.0 mi Calm Calm - 0.00 in   Clear
9:55 AM 55.4 °F - 55.4 °F 100% 30.01 in 1.5 mi Calm Calm - 0.00 in   Clear
10:15 AM 57.2 °F - 55.4 °F 94% 30.00 in 1.2 mi ENE 4.6 mph - 0.00 in   Clear
10:35 AM 60.8 °F - 55.4 °F 82% 30.00 in 7.0 mi East 3.5 mph - 0.00 in   Clear
10:55 AM 60.8 °F - 55.4 °F 82% 29.99 in 7.0 mi East 3.5 mph - 0.00 in   Clear
11:15 AM 62.6 °F - 55.4 °F 77% 29.99 in 7.0 mi ENE 4.6 mph - 0.00 in   Clear
11:35 AM 64.4 °F - 55.4 °F 73% 29.99 in 5.0 mi Calm Calm - 0.00 in   Clear
11:55 AM 64.4 °F - 53.6 °F 68% 29.98 in 6.0 mi ESE 8.1 mph - 0.00 in   Clear
12:15 PM 68.0 °F - 53.6 °F 60% 29.97 in 5.0 mi SE 10.4 mph - 0.00 in   Clear
12:35 PM 69.8 °F - 53.6 °F 56% 29.96 in 5.0 mi SSE 8.1 mph - 0.00 in   Clear
12:55 PM 71.6 °F - 51.8 °F 50% 29.94 in 5.0 mi SSE 9.2 mph - 0.00 in   Clear
1:15 PM 73.4 °F - 48.2 °F 41% 29.94 in 5.0 mi SE 16.1 mph 23.0 mph 0.00 in   Clear
1:35 PM 73.4 °F - 48.2 °F 41% 29.93 in 5.0 mi SE 11.5 mph 16.1 mph 0.00 in   Clear
1:55 PM 73.4 °F - 48.2 °F 41% 29.91 in 5.0 mi SE 10.4 mph 18.4 mph 0.00 in   Clear
2:15 PM 73.4 °F - 46.4 °F 38% 29.91 in 5.0 mi SSE 12.7 mph 18.4 mph 0.00 in   Clear
2:35 PM 75.2 °F - 44.6 °F 34% 29.90 in 5.0 mi SSE 16.1 mph 27.6 mph 0.00 in   Clear
2:55 PM 75.2 °F - 42.8 °F 31% 29.89 in 5.0 mi South 13.8 mph 24.2 mph 0.00 in   Clear
3:15 PM 73.4 °F - 44.6 °F 36% 29.88 in 5.0 mi South 11.5 mph 23.0 mph 0.00 in   Clear
3:35 PM 73.4 °F - 44.6 °F 36% 29.87 in 5.0 mi South 13.8 mph 18.4 mph 0.00 in   Clear
3:55 PM 75.2 °F - 42.8 °F 31% 29.86 in 5.0 mi SSE 16.1 mph 21.9 mph 0.00 in   Clear
4:15 PM 73.4 °F - 42.8 °F 33% 29.86 in 5.0 mi SSE 15.0 mph 19.6 mph 0.00 in   Clear
4:35 PM 71.6 °F - 42.8 °F 35% 29.86 in 5.0 mi South 10.4 mph 17.3 mph 0.00 in   Clear
4:55 PM 71.6 °F - 42.8 °F 35% 29.85 in 6.0 mi South 9.2 mph 17.3 mph 0.00 in   Clear
5:15 PM 69.8 °F - 44.6 °F 40% 29.85 in 6.0 mi South 11.5 mph 16.1 mph 0.00 in   Clear
5:35 PM 69.8 °F - 44.6 °F 40% 29.85 in 6.0 mi SSE 9.2 mph - 0.00 in   Clear
5:55 PM 69.8 °F - 44.6 °F 40% 29.84 in 6.0 mi SSE 8.1 mph 17.3 mph 0.00 in   Clear
6:15 PM 68.0 °F - 46.4 °F 46% 29.85 in 7.0 mi SSE 9.2 mph 17.3 mph 0.00 in   Clear
6:35 PM 66.2 °F - 46.4 °F 49% 29.85 in 7.0 mi SSE 9.2 mph - 0.00 in   Clear
6:55 PM 66.2 °F - 46.4 °F 49% 29.85 in 7.0 mi South 10.4 mph - 0.00 in   Clear
7:15 PM 66.2 °F - 46.4 °F 49% 29.85 in 9.0 mi SSE 9.2 mph 18.4 mph 0.00 in   Clear
7:35 PM 64.4 °F - 44.6 °F 49% 29.85 in 9.0 mi SSE 15.0 mph 19.6 mph 0.00 in   Clear
7:55 PM 64.4 °F - 42.8 °F 45% 29.85 in 9.0 mi SSE 9.2 mph - 0.00 in   Clear
8:15 PM 64.4 °F - 44.6 °F 49% 29.85 in 10.0 mi SSE 9.2 mph 17.3 mph 0.00 in   Clear
8:35 PM 64.4 °F - 42.8 °F 45% 29.85 in 10.0 mi SSE 11.5 mph 21.9 mph 0.00 in   Clear
8:55 PM 64.4 °F - 42.8 °F 45% 29.85 in 9.0 mi SSE 15.0 mph 23.0 mph 0.00 in   Clear
9:15 PM 62.6 °F - 44.6 °F 52% 29.85 in 9.0 mi SSE 11.5 mph 23.0 mph 0.00 in   Clear
9:35 PM 62.6 °F - 46.4 °F 55% 29.84 in 9.0 mi SSE 13.8 mph 20.7 mph 0.00 in   Clear
9:55 PM 62.6 °F - 46.4 °F 55% 29.85 in 9.0 mi SSE 15.0 mph 25.3 mph 0.00 in   Clear
10:15 PM 60.8 °F - 46.4 °F 59% 29.85 in 9.0 mi SE 11.5 mph 19.6 mph 0.00 in   Partly Cloudy
10:35 PM 60.8 °F - 48.2 °F 63% 29.86 in 10.0 mi SSE 9.2 mph 17.3 mph 0.00 in   Mostly Cloudy
10:55 PM 60.8 °F - 48.2 °F 63% 29.84 in 10.0 mi SE 18.4 mph 27.6 mph 0.00 in   Mostly Cloudy
11:15 PM 60.8 °F - 48.2 °F 63% 29.84 in 10.0 mi SE 13.8 mph 18.4 mph 0.00 in   Mostly Cloudy
11:35 PM 60.8 °F - 50.0 °F 68% 29.84 in 10.0 mi SSE 16.1 mph 21.9 mph 0.00 in   Mostly Cloudy
11:55 PM 60.8 °F - 51.8 °F 72% 29.84 in 10.0 mi SE 16.1 mph 25.3 mph 0.00 in   Overcast